This is the latest recevied weather packets stored in our database for station/object XQ6AK-15. If no packets are shown the sender has not sent any weather packets the latest 1 day(s).
| Time | Temp. | Humidity | Pressure | Rain* | Wind** | Luminosity | Snow |
|---|---|---|---|---|---|---|---|
| 1778012285 | 12.78° C | 99% | 1003.7 hPa | 3.05 mm | 0 m/s | 8 W/m² | - |
| 1778011983 | 12.22° C | 99% | 1003.4 hPa | 3.56 mm | 0.89 m/s, 199° | 16 W/m² | - |
| 1778011681 | 12.22° C | 99% | 1003.3 hPa | 1.78 mm | 1.34 m/s, 199° | 13 W/m² | - |
| 1778011377 | 12.22° C | 99% | 1003.7 hPa | 1.27 mm | 0.45 m/s, 158° | 19 W/m² | - |
| 1778011072 | 12.22° C | 99% | 1003.6 hPa | 1.27 mm | 0 m/s | 17 W/m² | - |
| 1778010771 | 12.22° C | 99% | 1003.7 hPa | 0 mm | 0.45 m/s, 340° | 16 W/m² | - |
| 1778010467 | 12.22° C | 99% | 1003.6 hPa | 1.78 mm | 0 m/s | 17 W/m² | - |
| 1778010164 | 12.22° C | 99% | 1003.6 hPa | 6.1 mm | 0.45 m/s, 86° | 23 W/m² | - |
| 1778009859 | 11.67° C | 99% | 1003.6 hPa | 8.89 mm | 0.45 m/s, 108° | 19 W/m² | - |
| 1778009558 | 11.67° C | 99% | 1003.6 hPa | 6.1 mm | 0.89 m/s, 89° | 26 W/m² | - |
| 1778009256 | 11.67° C | 99% | 1003.8 hPa | 6.6 mm | 0 m/s | 29 W/m² | - |
| 1778008954 | 11.67° C | 99% | 1003.7 hPa | 7.87 mm | 0.45 m/s, 78° | 24 W/m² | - |
| 1778008652 | 11.67° C | 99% | 1003.8 hPa | 6.1 mm | 1.34 m/s, 108° | 19 W/m² | - |
| 1778008350 | 12.22° C | 99% | 1004 hPa | 8.89 mm | 0 m/s | 22 W/m² | - |
| 1778008046 | 12.22° C | 99% | 1004.3 hPa | 7.87 mm | 1.34 m/s, 4° | 21 W/m² | - |
| 1778007745 | 12.22° C | 99% | 1004.4 hPa | 1.78 mm | 0.45 m/s, 57° | 25 W/m² | - |
| 1778007443 | 12.22° C | 99% | 1004.4 hPa | 1.27 mm | 0.45 m/s, 174° | 18 W/m² | - |
| 1778007139 | 12.22° C | 99% | 1004.3 hPa | 4.83 mm | 0.45 m/s, 196° | 25 W/m² | - |
| 1778006834 | 12.78° C | 99% | 1004.5 hPa | 7.87 mm | 0.45 m/s, 83° | 26 W/m² | - |
| 1778006532 | 12.78° C | 99% | 1004.5 hPa | 7.87 mm | 0.45 m/s, 178° | 30 W/m² | - |
| 1778006229 | 12.78° C | 99% | 1004.5 hPa | 7.11 mm | 0 m/s | 39 W/m² | - |
| 1778005926 | 12.78° C | 99% | 1004.7 hPa | 4.83 mm | 0 m/s | 42 W/m² | - |
| 1778005622 | 12.78° C | 99% | 1004.7 hPa | 3.56 mm | 1.34 m/s, 190° | 31 W/m² | - |
| 1778005319 | 12.78° C | 99% | 1004.6 hPa | 4.32 mm | 1.34 m/s, 160° | 30 W/m² | - |
| 1778005015 | 12.78° C | 99% | 1004.8 hPa | 7.87 mm | 0.89 m/s, 328° | 38 W/m² | - |
* Rain latest hour (hover to see other rain measurements)
** Current wind speed in m/s (hover to see current wind gust speed)